User: anonymous   Login
Location: Petruro
(41.0333°N, 14.7833°E)
Time: 19:48:43
(UTC+00:00)
Language:

FENGYUN 1C DEB - Orbit

View from above orbital plane
View from above orbital plane
View from above satellite
View from above satellite

Ground track
Ground track

The orbit data is extracted from the following two-line orbital elements,

1 31808U 99025CGW 22015.47867260  .00002393  00000-0  13533-2 0  9999
2 31808  99.2274 113.8139 0087558 259.2230  99.9073 14.09271601372692
Epoch (UTC): 15 January 2022 11:29:17
Eccentricity: 0.0087558
inclination: 99.2274°
perigee height: 798 km
apogee height: 925 km
right ascension of ascending node: 113.8139°
argument of perigee: 259.2230°
revolutions per day: 14.09271601
mean anomaly at epoch: 99.9073°
orbit number at epoch: 37269

The dashed part of the orbit path shows where the satellite is in the earth's shadow,  

DLR